Location: ????????
(60.4333°N, 46.4710°E)
Time: 19:44:21
(UTC+00:00)

AQUARIUS - Pass Details

Date: 25 November 2020
Orbit: 650 x 652 km, 98.0° (Epoch: 17 January)

Event Time Altitude Azimuth Distance (km) Brightness Sun altitude
Rises 14:10:02 0° 168° (SSE) 2,968 7.6 -14.3°
Reaches altitude 10° 14:12:15 10° 171° (S) 2,061 6.8 -14.6°
Maximum altitude 14:16:44 71° 255° (WSW) 698 4.5 -15.1°
Drops below altitude 10° 14:21:16 10° 340° (NNW) 2,076 6.8 -15.7°
Sets 14:23:31 0° 343° (NNW) 2,992 7.6 -15.9°
